Location: Poughquag
(41.6090°N, 73.6820°W)
Time: 22:33:47
(UTC-05:00)

Tiros 1 despin weight - Pass Details

Date: 15 December 2023
Orbit: 581 x 624 km, 48.2° (Epoch: 21 February)

Event Time Altitude Azimuth Distance (km) Brightness Sun altitude
Rises 19:16:36 0° 297° (WNW) 2,806 ? -31.1°
Reaches altitude 10° 19:18:54 10° 296° (WNW) 1,900 ? -31.5°
Enters shadow 19:20:40 24° 293° (WNW) 1,226 ? -31.8°
